HP1MRA-15 Weather Reports


time (UTC)temp
C
wind
direction
speed
KPH
gust
KPH
rain 1hr
cm
rain 24hr
cm
rain mn
cm
humidity
%
barometer
mb
20260504100311 25 225 3.2 4.8 0.00 0.00 0.00 86 1001.3
20260504081811 -17 45 1.6 3.2 0.00 0.00 0.00 1001.3
20260504081310 25 90 1.6 3.2 0.00 0.00 0.00 85 1001.3
20260504080810 25 45 1.6 3.2 0.00 0.00 0.00 85 1001.3
20260504080310 25 90 1.6 3.2 0.00 0.00 0.00 85 1001.4
20260504050546 27 45 0.0 3.2 0.00 0.00 0.00 80 1003.6
20260504045546 27 45 0.0 0.0 0.00 0.00 0.00 80 1003.7
20260504045044 27 0 0.0 0.0 0.00 0.00 0.00 80 1003.7
20260504044543 27 0 0.0 1.6 0.00 0.00 0.00 80 1003.7
20260504043824 27 45 0.0 1.6 0.00 0.00 0.00 80 1003.8
20260504043324 27 45 0.0 3.2 0.00 0.00 0.00 80 1003.9
20260504042824 27 270 1.6 6.4 0.00 0.00 0.00 81 1003.9
20260504042324 27 225 1.6 3.2 0.00 0.00 0.00 81 1003.9
20260504041824 27 0 0.0 0.0 0.00 0.00 0.00 81 1003.8
20260504041324 27 0 0.0 0.0 0.00 0.00 0.00 82 1003.8
20260504040824 27 0 0.0 3.2 0.00 0.00 0.00 82 1003.9
20260504040324 27 270 3.2 3.2 0.00 0.00 0.00 83 1004.0
20260504035824 27 180 1.6 3.2 0.00 0.00 0.00 83 1004.0
20260504035324 27 270 3.2 6.4 0.00 0.00 0.00 82 1004.1
20260504034827 27 225 3.2 4.8 0.00 0.00 0.00 82 1004.1
20260504034324 27 225 0.0 3.2 0.00 0.00 0.00 81 1004.0
20260504033823 27 0 0.0 1.6 0.00 0.00 0.00 80 1004.0
20260504033323 27 0 0.0 4.8 0.00 0.00 0.00 81 1003.9
20260504032822 27 225 3.2 6.4 0.00 0.00 0.00 80 1003.9
20260504032323 28 180 1.6 3.2 0.00 0.00 0.00 78 1003.8
20260504031822 28 0 0.0 0.0 0.00 0.00 0.00 76 1003.8
20260504031321 28 0 0.0 1.6 0.00 0.00 0.00 76 1003.7
20260504030822 28 0 1.6 3.2 0.00 0.00 0.00 76 1003.7
20260504030321 28 0 0.0 3.2 0.00 0.00 0.00 76 1003.7
20260504025821 28 0 1.6 3.2 0.00 0.00 0.00 76 1003.7
20260504025322 28 0 0.0 1.6 0.00 0.00 0.00 76 1003.6
20260504024821 28 0 0.0 0.0 0.00 0.00 0.00 76 1003.6
20260504024321 28 0 0.0 0.0 0.00 0.00 0.00 76 1003.6
20260504023822 28 0 0.0 0.0 0.00 0.00 0.00 76 1003.6
20260504023321 28 0 0.0 1.6 0.00 0.00 0.00 76 1003.6
20260504022821 28 0 0.0 1.6 0.00 0.00 0.00 77 1003.7
20260504022322 28 0 0.0 0.0 0.00 0.00 0.00 77 1003.6
20260504021821 28 0 0.0 3.2 0.00 0.00 0.00 77 1003.6
20260504021321 28 0 0.0 1.6 0.00 0.00 0.00 78 1003.6
20260504020821 27 45 0.0 3.2 0.00 0.00 0.00 79 1003.5
20260504020321 27 225 1.6 8.0 0.00 0.00 0.00 79 1003.6
20260504015821 27 180 4.8 8.0 0.00 0.00 0.00 79 1003.5
20260504015321 27 180 3.2 8.0 0.00 0.00 0.00 78 1003.4
20260504014821 28 180 6.4 8.0 0.00 0.00 0.00 77 1003.5
20260504014320 28 135 3.2 4.8 0.00 0.00 0.00 76 1003.6
20260504013821 28 180 3.2 6.4 0.00 0.00 0.00 75 1003.5
20260504013320 29 90 0.0 6.4 0.00 0.00 0.00 74 1003.5
20260504012821 29 0 1.6 8.0 0.00 0.00 0.00 74 1003.4
20260504012321 29 0 4.8 8.0 0.00 0.00 0.00 74 1003.3
20260504011820 29 0 4.8 8.0 0.00 0.00 0.00 74 1003.3
20260504011321 29 0 3.2 8.0 0.00 0.00 0.00 74 1003.2
20260504010821 28 45 3.2 4.8 0.00 0.00 0.00 74 1003.3
20260504010321 28 0 3.2 4.8 0.00 0.00 0.00 74 1003.4
20260504005821 28 45 0.0 6.4 0.00 0.00 0.00 75 1003.3
20260504005320 -17 45 0.0 3.2 0.00 0.00 0.00 1003.2
20260504004821 28 135 1.6 4.8 0.00 0.00 0.00 75 1003.1
20260504004320 28 90 1.6 4.8 0.00 0.00 0.00 77 1003.1
20260504003820 28 180 3.2 4.8 0.00 0.00 0.00 77 1003.1
20260504003321 28 225 1.6 3.2 0.00 0.00 0.00 76 1003.0
20260504002820 28 0 1.6 8.0 0.00 0.00 0.00 76 1003.0
20260504002320 28 225 3.2 6.4 0.00 0.00 0.00 75 1002.9
20260504001820 28 135 4.8 9.7 0.00 0.00 0.00 75 1002.9
20260504001320 28 225 3.2 4.8 0.00 0.00 0.00 74 1002.8
20260504000820 28 180 3.2 6.4 0.00 0.00 0.00 73 1002.6
20260504000320 29 180 3.2 12.9 0.00 0.00 0.00 72 1002.7
20260503235820 29 135 4.8 9.7 0.00 0.00 0.00 71 1002.7
20260503235320 29 180 6.4 12.9 0.00 0.00 0.00 70 1002.5
20260503234820 30 180 9.7 17.7 0.00 0.00 0.00 69 1002.5
20260503234318 30 90 9.7 25.7 0.00 0.00 0.00 68 1002.5
20260503233819 30 180 11.3 22.5 0.00 0.00 0.00 67 1002.4
20260503233319 30 180 8.0 17.7 0.00 0.00 0.00 67 1002.3
20260503232819 30 180 4.8 11.3 0.00 0.00 0.00 67 1002.1
20260503232319 30 225 8.0 11.3 0.00 0.00 0.00 67 1002.0
20260503231819 30 180 8.0 16.1 0.00 0.00 0.00 66 1001.9
20260503231319 30 180 6.4 12.9 0.00 0.00 0.00 66 1001.8
20260503230819 30 135 8.0 14.5 0.00 0.00 0.00 65 1001.7
20260503230319 30 135 8.0 14.5 0.00 0.00 0.00 66 1001.6
20260503225819 31 135 6.4 9.7 0.00 0.00 0.00 66 1001.5
20260503225318 31 180 6.4 9.7 0.00 0.00 0.00 65 1001.3
20260503224819 31 135 6.4 9.7 0.00 0.00 0.00 64 1001.1
20260503224318 31 135 6.4 9.7 0.00 0.00 0.00 63 1001.0
20260503223817 31 90 3.2 6.4 0.00 0.00 0.00 63 1001.0
20260503223318 32 90 3.2 6.4 0.00 0.00 0.00 62 1000.9
20260503222816 32 90 3.2 8.0 0.00 0.00 0.00 62 1000.8
20260503222316 31 90 3.2 8.0 0.00 0.00 0.00 63 1001.0
20260503221258 32 45 8.0 12.9 0.00 0.00 0.00 60 1000.9
20260503220758 32 90 4.8 8.0 0.00 0.00 0.00 59 1000.9
20260503220259 33 135 4.8 8.0 0.00 0.00 0.00 57 1000.9
20260503215758 33 90 3.2 8.0 0.00 0.00 0.00 54 1000.9
20260503215258 32 180 3.2 12.9 0.00 0.00 0.00 54 1000.8
20260503214758 33 180 4.8 8.0 0.00 0.00 0.00 54 1000.7
20260503214258 33 180 6.4 12.9 0.00 0.00 0.00 53 1000.7
20260503213758 33 225 6.4 12.9 0.00 0.00 0.00 53 1000.6
20260503213258 33 180 1.6 12.9 0.00 0.00 0.00 53 1000.6
20260503212758 33 180 8.0 17.7 0.00 0.00 0.00 53 1000.6
20260503212257 34 225 8.0 12.9 0.00 0.00 0.00 52 1000.5
20260503211758 35 225 8.0 17.7 0.00 0.00 0.00 50 1000.4
20260503211258 35 225 12.9 19.3 0.00 0.00 0.00 49 1000.3
20260503210757 36 180 8.0 11.3 0.00 0.00 0.00 48 1000.2
20260503210258 35 225 6.4 16.1 0.00 0.00 0.00 48 1000.3
20260503205758 35 225 8.0 12.9 0.00 0.00 0.00 49 1000.4
20260503205258 35 180 3.2 24.1 0.00 0.00 0.00 50 1000.4
20260503204758 35 180 17.7 24.1 0.00 0.00 0.00 49 1000.5
20260503204258 35 225 12.9 17.7 0.00 0.00 0.00 50 1000.5
20260503203758 35 180 9.7 17.7 0.00 0.00 0.00 49 1000.5
20260503203257 35 225 14.5 20.9 0.00 0.00 0.00 48 1000.5
20260503202757 36 225 8.0 17.7 0.00 0.00 0.00 49 1000.6
20260503202258 35 180 8.0 17.7 0.00 0.00 0.00 49 1000.7
20260503201757 36 225 17.7 25.7 0.00 0.00 0.00 48 1000.7
20260503201257 37 225 6.4 20.9 0.00 0.00 0.00 46 1000.8
20260503200757 37 270 11.3 19.3 0.00 0.00 0.00 45 1000.9
20260503200258 37 270 4.8 16.1 0.00 0.00 0.00 47 1000.9
20260503195757 37 270 1.6 14.5 0.00 0.00 0.00 48 1001.0
20260503195257 37 270 3.2 11.3 0.00 0.00 0.00 48 1001.2
20260503194757 36 225 11.3 22.5 0.00 0.00 0.00 48 1001.2
20260503194257 37 180 3.2 8.0 0.00 0.00 0.00 50 1001.2
20260503193757 36 0 3.2 14.5 0.00 0.00 0.00 50 1001.3
20260503193257 36 225 11.3 20.9 0.00 0.00 0.00 48 1001.3
20260503192757 37 180 8.0 16.1 0.00 0.00 0.00 48 1001.4
20260503192257 37 225 14.5 20.9 0.00 0.00 0.00 47 1001.4
20260503191757 37 180 8.0 12.9 0.00 0.00 0.00 49 1001.5
20260503191257 36 180 4.8 17.7 0.00 0.00 0.00 50 1001.6
20260503190756 36 225 11.3 17.7 0.00 0.00 0.00 50 1001.7
20260503190257 36 225 12.9 19.3 0.00 0.00 0.00 49 1001.7
20260503185757 36 270 0.0 19.3 0.00 0.00 0.00 52 1001.9
20260503185256 -17 225 11.3 17.7 0.00 0.00 0.00 1001.9
20260503184756 36 225 9.7 22.5 0.00 0.00 0.00 51 1002.0
20260503184257 36 225 12.9 22.5 0.00 0.00 0.00 52 1002.0
20260503183757 36 225 8.0 17.7 0.00 0.00 0.00 52 1002.1
20260503183256 36 270 6.4 16.1 0.00 0.00 0.00 54 1002.2
20260503182756 35 270 12.9 25.7 0.00 0.00 0.00 53 1002.3
20260503182257 36 225 16.1 27.4 0.00 0.00 0.00 51 1002.3
20260503181756 36 270 8.0 22.5 0.00 0.00 0.00 52 1002.5
20260503181256 36 225 12.9 22.5 0.00 0.00 0.00 52 1002.6
20260503180757 36 225 12.9 22.5 0.00 0.00 0.00 52 1002.8
20260503180256 36 270 14.5 22.5 0.00 0.00 0.00 52 1002.8
20260503175756 36 225 4.8 17.7 0.00 0.00 0.00 52 1003.0
20260503175256 36 225 8.0 19.3 0.00 0.00 0.00 51 1003.2
20260503174756 37 225 8.0 17.7 0.00 0.00 0.00 50 1003.3
20260503174255 37 225 4.8 14.5 0.00 0.00 0.00 53 1003.4
20260503173756 36 270 4.8 19.3 0.00 0.00 0.00 52 1003.6
20260503173256 36 225 8.0 22.5 0.00 0.00 0.00 52 1003.7
20260503172755 35 180 3.2 17.7 0.00 0.00 0.00 56 1003.8
20260503172256 35 225 8.0 22.5 0.00 0.00 0.00 55 1003.8
20260503171756 -17 225 11.3 19.3 0.00 0.00 0.00 1003.9
20260503171256 36 225 8.0 16.1 0.00 0.00 0.00 55 1004.0
20260503170755 35 270 8.0 20.9 0.00 0.00 0.00 57 1004.1
20260503170256 35 225 11.3 20.9 0.00 0.00 0.00 57 1004.2
20260503150754 31 135 8.0 17.7 0.00 0.00 0.00 64 1005.0
20260503150254 31 225 6.4 17.7 0.00 0.00 0.00 66 1004.8
20260503131346 27 225 3.2 8.0 0.00 0.00 0.00 77 1004.9
20260503130845 27 180 4.8 8.0 0.00 0.00 0.00 79 1004.9
20260503130346 26 225 3.2 6.4 0.00 0.00 0.00 82 1004.9
20260503110622 23 90 0.0 3.2 0.00 0.00 0.00 89 1003.3
20260503110121 23 90 0.0 0.0 0.00 0.00 0.00 89 1003.2